Погода в Твери

Хотите узнать прогноз погоды в Твери? Тогда Вам сюда: Погода в Твери

Поиск расширенной информации на нашем сайте:

Полезная информация:

Новости сайта



14.11.2019
Обновлён Долгосрочный прогноз погоды по России и другим странам хСССР на ноябрь-декабрь 2019 года.
Опубликованы прогностические карты: Предварительный прогноз на декабрь 2019 года, Предварительный прогноз на январь 2020 года, Предварительная схема синоптических процессов на декабрь 2019 г..

11.11.2019
Обновлены Долгосрочный прогноз погоды по России и другим странам хСССР на ноябрь-декабрь 2019 года и Предварительный прогноз на зиму 2019/2020 годов

04.11.2019
Опубликован Долгосрочный прогноз погоды по России и другим странам хСССР на ноябрь 2019 года
Сравнение прогнозируемой аномалии приземной температуры воздуха на ноябрь 2019 года по разным моделям
Предварительный прогноз на зиму 2019/2020 года




Погода в Твери - сегодня

Время (UTC), дата Ветер
(°,м/с) 
Видим.   Явления Облачность Т
(°С)
Тd
(°С)
f(%) Тe
(°С)
Pmin
(гПа)
dP
(гПа)
Po
(мм)
O2
(г/м3)
Тmin Tmax R s Состояние
почвы
00 18.11.19 210 (ЮЗ) 4000 м  дымка{морось}  10/10 300 м 
[St]
+6.3 +5.4 94 +7  1027.7  -0.2  757  297           
03 18.11.19 210 (ЮЗ) 4000 м  слаб. морось  10/10 300 м 
[St]
+6.1 +5.1 93 +7  1027.7  -0.1  757  298  +6    0.3     
06 18.11.19 тихо ()   2000 м  слаб. морось  10/10 300 м 
[St]
+6 +5.1 94 +6  1028.1  0.4  758  298  +6    0.3     
09 18.11.19 тихо ()   2000 м  в посл. час морось  10/10 100 м 
[St]
+6.3 +5.4 94 +6  1028.7  0.6  758  298           
12 18.11.19 тихо ()   10 км  {морось}  10/10 300 м 
[St]
+6.2 +5.2 93 +6  1028.8  0.1  758  298           
15 18.11.19 тихо ()   4000 м  дымка  9/9 300 м 
[Sc]
+5.9 +5 94 +6  1029.1  0.3  758  298      0.3     
18 18.11.19 тихо ()   4000 м  дымка  10/10 200 м 
[St]
+5.5 +4.6 94 +6  1029.6  0.5  759  299    +6.4  0.3     
21 18.11.19 110 (В) 2000 м  дымка  10/10 100 м 
[St]
+5.2 +4.5 95 +5  1030.1  0.4  759  299           
00 19.11.19 110 (В) 2000 м  дымка  10/10 100 м 
[St]
+5.1 +4.4 95 +6  1030.7  0.6  759  300           
03 19.11.19 120 (ЮВ) 4000 м  в посл. час морось  10/10 200 м 
[St]
+4.6 +3.9 95 +4  1030.6  -0.1  759  300  +4.6    0.3     
06 19.11.19 130 (ЮВ) 4000 м  дымка{морось}  10/10 100 м 
[St]
+4.4 +3.5 94 +3  1031  0.3  760  301  +4.4    0.3     
09 19.11.19 150 (ЮВ) 4000 м  дымка  10/10 100 м 
[St]
+4.1 +3.3 95 +3  1031.8  0.8  760  301           
12 19.11.19 130 (ЮВ) 4000 м  дымка  10/10 200 м 
[St]
+4.1 +3.1 93 +3  1032.1  0.2  760  301           
15 19.11.19 140 (ЮВ) 10 км    10/10 200 м 
[St]
+4.3 +3.1 92 +3  1032.6  0.6  761  301           
18 19.11.19 170 (Ю) 1000 м  дымка  10/10 100 м 
[St]
+2.9 +2.1 94 +4  1033.9  1.1  762  303    +4.4       
21 19.11.19 160 (Ю) 1000 м  дымка  10/10 100 м 
[St]
+2.3 +1.7 96 +2  1035.2  1.3  763  304           
00 20.11.19 090 (В) 1000 м  дымка  10/10 100 м 
[St]
+2.6 +2 96 +3  1036.2  763  304           
03 20.11.19 110 (В) 1000 м  дымка  10/10 200 м 
[St]
+4 +3.4 96 +3  1036.9  0.8  764  303  +2.3         
06 20.11.19 120 (ЮВ) 4000 м  дымка  10/10 300 м 
[St]
+3.9 +2.3 89 +2  1038.5  1.6  765  304  +2.3         
09 20.11.19 120 (ЮВ) 10 км    10/10 300 м 
[St]
+4.1 +1.9 86 +2  1040.4  1.8  766  304           
12 20.11.19 110 (В) 10 км    10/10 300 м 
[St]
+2.9 +0.4 84 +1  1041.5  767  306           
15 20.11.19 120 (ЮВ) 10 км    10/10 300 м 
[St]
+1.2 -1.6 82 -2  1043  1.4  768  308           
18 20.11.19 120 (ЮВ) 10 км    9/9 1500 м 
[Sc]
+0.3 -2.9 79 -2  1044.3  1.1  769  310    +4.1       
21 20.11.19 120 (ЮВ) 10 км    3/0 средняя 
[Ac trans]
-2.3 -6.1 75 -4  1045.3  0.8  770  313           
00 21.11.19 130 (ЮВ) 10 км    ясно 
-3.8 -7.3 77 -6  1046.3  0.9  770  316           
Время (UTC), дата Ветер
(°,м/с) 
Видим.   Явления Облачность Т
(°С)
Тd
(°С)
f(%) Тe
(°С)
Pmin
(гПа)
dP
(гПа)
Po
(мм)
O2
(г/м3)
Тmin Tmax R s Состояние
почвы

Для получения пояснительной информации подведите курсор к названию столбца.

ПОГОДА в Твери - архив

Всё, что Вы хотите узнать о погоде в Твери - удобно и подробно!

Выберите нужную дату (начиная с 1 января 2019* года) и нажмите кнопку "Найти".
Будут отображены архивные сводки погоды по пункту Тверь, начиная с указанной даты.


Отображать данные в формате CSV (для использования в таблицах Excel)


Внимание! Наш архив погоды предназначен исключительно для личного некоммерческого использования в познавательных целях. Если Вам необходимы официальные справки о состоянии погоды (для производственных, юридических, коммерческих и т.п. целей), обращайтесь в органы Росгидромета.

*Примечание: данная дата относится к архиву по метеостанциям СССР (Россия, СНГ, Балтия).
Архив по метеостанциям Зарубежной Европы и Азии (кроме Китая) хранится 10 дней, по другим регионам земного шара (Китай, Африка, Америка, Австралия, Океания) - 1 день.

Тверь - район местоположения метеостанции


Название, широта, долгота, высота метеостанции:
Тверь (город) 56.8°ш. 35.7°д. 137 м над ур. моря [Российская Федерация]

Дополнительная информация

В oтличие oт бoльшинства пoгoдных сайтoв мы публикуем пoдрoбную метеoинфoрмацию в детальнoм прoфессиoнальнoм фoрмате.

Характеристики температуры и влажнoсти вoздуха измеряются на высoте 2 м в тени вдали oт зданий и деревьев.
Скoрoсть ветра измеряется на высoте 10 м (на урoвне рoста челoвека скoрoсть ветра ниже в 1.5-2 раза). Если метеoстанция нахoдится в гoрoде или в лесу, тo скoрoсть ветра занижена на 2-4 м/с пo сравнению с oткрытым местoм. Скoрoсть ветра над акватoриями крупных рек и oзёр, а также на вершинах хoлмoв на 2-5 м/с выше, чем в oбычных услoвиях.
Атмoсфернoе давление в разных тoчках местнoсти мoжет значительнo oтличаться oт давления на метеoстанции, в зависимoсти oт услoвий рельефа (при пoдъёме на 10 м давление пoнижается примернo на 1 мм рт.ст.).